星链-31856 (STARLINK-31856 )

导读 | 星芒AI

STARLINK-31856 是 SpaceX Starlink 卫星互联网项目中的一颗低轨卫星,属于第三代 Starlink(v1.5 或 v2)系列。该卫星由 Falcon 9 火箭发射入轨,旨在为全球用户提供高速、低延迟的宽带互联网服务。它运行在约 550 公里的轨道高度,采用先进推进系统和激光通信技术,提升网络性能与覆盖范围。Starlink 项目致力于改善偏远地区网络接入,支持多种应用场景,包括民用、商业及应急通信。

基本信息
目录编号:
59960
目录名称:
STARLINK-31856
国际标识:
2024-107R
轨道中心:
EARTH
卫星名称:
星链-31856
卫星全名:
星链-31856 (STARLINK-31856 )
卫星状态:
在轨 (已飞行515 天)
发射日期:
2024-06-05 UTC
国别 :
美国 (US)
星等 :
--
轨道信息
数据来源 国际轨道数据
星历时间: 2025-11-01T14:06:32+0800
1天前
查看轨道信息
半长轴: 6853.413km
偏心率: 0.0001432
轨道倾角: 53.160°
近地点辐角 91.416°
升交点赤经 302.016°
平近点角 268.700°
近地点: 474.296km
远地点: 476.26km
周期: 94.107分钟
每日圈数: 15.301797
详细信息
固有亮度:
5
最大亮度:
1.5
卫星平台:
Starlink v2.0 mini
覆盖范围:
全球
运营商:
太空探索技术公司
运营商所在国:
美国
制造商(研发单位):
太空探索技术公司
制造商所在国:
美国
使用方式:
暂无
卫星简介
星链(Starlink)计划是由太空探索技术公司(SpaceX)提出的一个巨型低轨卫星互联网星座项目,计划在2019年至2024年间在太空搭建由约1.2万颗卫星组成的“星链”网络,其中1584颗将部署在地球上空550千米处的近地轨道,并从2020年开始工作。该卫星仍在工作。
2D轨道图
3D轨道图
轨道高度分析图
轨道倾角分析图
轨道综合分析图
查看轨道综合分析图